Regional Weather Roundup
Issued by NWS Upton, NY

Current Version | Previous Version | Graphics & Text | Print | Product List | Glossary Off
Versions: 1 2 3 4 5 6 7 8 9 10 11 12 13 14 15 16 17 18 19 20 21 22 23 24 25 26 27 28 29 30 31 32 33 34 35 36 37 38 39 40 41 42 43 44 45 46 47 48 49 50

000
ASUS41 KOKX 010005
RWROKX

REGIONAL WEATHER ROUNDUP
NATIONAL WEATHER SERVICE NEW YORK NY
700 PM EST SAT JAN 31 2015

NOTE: "FAIR" INDICATES FEW OR NO CLOUDS BELOW 12,000 FEET WITH NO
SIGNIFICANT WEATHER AND/OR OBSTRUCTIONS TO VISIBILITY.

NYZ071-072-176-178-NJZ106-104-010100-
NEW YORK CITY METRO AREA


CITY           SKY/WX    TMP DP  RH WIND       PRES   REMARKS
CENTRAL PARK   CLEAR     23   3  42 VRB7G22   30.18R WCI  15
LAGUARDIA APRT CLEAR     24   5  44 NW18G28   30.18R WCI  10
KENNEDY INTL   PTCLDY    25   2  37 NW22G28   30.19R WCI  10
NEWARK/LIBERTY PTCLDY    23   4  44 NW14G23   30.19R WCI  11
BRNX BOT. GARD   N/A    N/A N/A N/A W18       30.18S
TETERBORO      CLEAR     22   3  44 NW12G22   30.18R WCI  10
$$

NYZ177-179-078>081-010100-
LONG ISLAND NEW YORK

CITY           SKY/WX    TMP DP  RH WIND       PRES   REMARKS
FARMINGDALE    CLEAR     22   2  42 NW9       30.15R WCI  12
ISLIP          CLEAR     22   0  38 NW14      30.10R WCI   9
SHIRLEY        CLEAR     22  -1  36 NW13      30.12R WCI  10
WESTHAMPTON    CLEAR     22  -2  35 NW15G25   30.11R WCI   9
MONTAUK POINT    N/A     22   3  44 NW17G29   30.08R WCI   8
$$

NYZ052-065-067-010100-
HUDSON VALLEY

CITY           SKY/WX    TMP DP  RH WIND       PRES   REMARKS
WHITE PLAINS   CLEAR     20   1  43 NW23G30   30.11R WCI   3
NEWBURGH       CLEAR     18   5  57 NW16      30.15R WCI   3
MONTGOMERY     CLEAR     19   1  45 W14G23    30.15R WCI   6
POUGHKEEPSIE   CLEAR     19  -1  41 NW8       30.17R WCI   9
ALBANY         PTCLDY    13  -1  54 NW9       30.18S WCI   1
$$

NJZ001-105-106-008-010-013-015-019>022-104-010100-
NEW JERSEY

CITY           SKY/WX    TMP DP  RH WIND       PRES   REMARKS
NEWARK/LIBERTY PTCLDY    23   4  44 NW14G23   30.19R WCI  11
TETERBORO      CLEAR     22   3  44 NW12G22   30.18R WCI  10
CALDWELL       CLEAR     21   3  45 NW12G25   30.19R WCI   9
MORRISTOWN     CLEAR     25   3  39 N7G21     30.19R WCI  17
SOMERVILLE     CLEAR     23   3  42 NW3       30.19R
SUSSEX         CLEAR     18   2  49 NW8       30.18R WCI   8
ANDOVER          N/A     18   3  52 VRB5      30.18R WCI  11
TRENTON        CLEAR     24   5  44 W7        30.20R WCI  16
MILLVILLE      CLEAR     26   8  46 W10       30.25R WCI  16
ATLANTIC CITY  CLEAR     24   7  48 W13       30.23R WCI  12
WRIGHTSTOWN    FAIR      24   6  46 W10       30.18R WCI  14
TOMS RIVER     CLEAR     23   7  50 CALM      30.19S
BELMAR         CLEAR     25   1  36 NW8       30.18R WCI  16
$$

PAZ047>061-062-071-010100-
EASTERN PENNSYLVANIA

CITY           SKY/WX    TMP DP  RH WIND       PRES   REMARKS
PHILADELPHIA   PTCLDY    27   6  41 W10       30.25R WCI  17
ALLENTOWN      CLEAR     22   5  48 W7        30.20R WCI  13
SCRANTON       CLEAR     18   3  52 NW5       30.16S WCI  11
$$

CTZ002-004>006-009-010-012-RIZ004-006-007-MAZ004-011-015-010100-
SOUTHERN NEW ENGLAND
 IN CT

CITY           SKY/WX    TMP DP  RH WIND       PRES   REMARKS
BRADLEY INTL   CLEAR     15  -7  37 NW9       30.09S WCI   3
HARTFORD       CLEAR     16  -7  35 NW10G24   30.12R WCI   4
DANBURY        CLEAR     17  -5  37 N8        30.12R WCI   7
WTRBRY/OXFORD  CLEAR     16  -8  35 NW7G17    30.06R WCI   6
BRIDGEPORT     CLEAR     20  -2  38 NW13      30.13R WCI   7
MERIDEN        CLEAR     17  -7  34 N7G16     30.10S WCI   8
NEW HAVEN      CLEAR     21  -5  31 NW12G21   30.10R WCI   9
CHESTER        FAIR      18  -6  35 NW12G20   30.06S WCI   5
GROTON         CLEAR     17  -3  41 NW22G31   30.06R WCI   0
WILLIMANTIC    CLEAR     15  -6  39 NW8G20    30.07R WCI   4

 IN RI

CITY           SKY/WX    TMP DP  RH WIND       PRES   REMARKS
PROVIDENCE     CLEAR     18  -4  37 NW12      30.02R WCI   5
BLOCK ISLAND   CLEAR     19   0  42 NW16G26   30.02R WCI   5
WESTERLY       CLEAR     18  -5  36 NW12G23   30.04R WCI   5

 IN MA

CITY           SKY/WX    TMP DP  RH WIND       PRES   REMARKS
BOSTON         CLEAR     16  -5  39 NW22G32   30.00R WCI  -2
WORCESTER      CLEAR    N/A N/A N/A NW18      29.95S
WESTFIELD      CLEAR     15  -7  37 NW16      30.07S WCI  -1
PROVINCETOWN   CLEAR     21   7  53 NW33G46   29.93R WCI   2
NANTUCKET      CLEAR     22   0  38 NW26G36   29.93R WCI   5
$$

ANZ330-335-338-340-345-350-353-355-010100-
COASTAL MARINE OBSERVATIONS


STATION/POSITION TIME  SKY/WX   TEMP    WIND        PRES    VSBY  WAVE
                                AIR SEA DIR/SP/G                  HT/PER
                 (UTC)          (F)     (DEG/KT/KT) (MB)    (MI)  (FT/S)
NY HARB ENTRANCE 0000            28 40  300/ 23/ 29 1021.1          4/ 4
4S FIRE IS       NOT AVBL
20S FIRE ISLAND  2300               41              1019.8          6/ 6
23SW MTP         0000                                 N/A           7/ 7
HUDSON CANYON    NOT AVBL
EXECUTION ROCKS  0000            25 33  290/ 17/ 23   N/A
WESTERN LI SOUND 0000            25     280/ 14/ 17   N/A           1/ 3
CENTRAL LI SOUND 2300            23 34  310/ 21/ 27   N/A           3/ 5
EASTERN LI SOUND NOT AVBL
ROBBINS REEF     2300            24     310/ 19/ 25 1020.6
$$


>>>>>>>>>>>>>>>>>>>>>>>>>>>> KEY <<<<<<<<<<<<<<<<<<<<<<<<<<<
>                                                          <
>     SKY/WX - SKY CONDITION/PRESENT WEATHER               <
>     TMP    - TEMPERATURE IN FAHRENHEIT                   <
>     DP     - DEWPOINT IN FAHRENHEIT                      <
>     RH     - RELATIVE HUMIDITY IN PERCENT                <
>     WIND   - DIRECTION AND SPEED IN MPH                  <
>     PRES   - MEAN SEA LEVEL PRESSURE IN INCHES OF HG     <
>     WCI    - WIND CHILL INDEX                            <
>     VSB    - VISIBILITY IN MILES                         <
>     HX     - HEAT INDEX                                  <
>     TC     - TEMPERATURE IN CELSIUS                      <
>     VRB    - VARIABLE WIND DIRECTION                     <
>                                                          <
>>>>>>>>>>>>>>>>>>>>>>>>>>>> KEY <<<<<<<<<<<<<<<<<<<<<<<<<<<




USA.gov is the U.S. government's official web portal to all federal, state and local government web resources and services.